When you browse on this site, cookies collect data to enhance your experience and personalize the content and advertising you see.
Visit our Privacy Policy to learn more. By continuing to use the site, you agree to this use of cookies and data.
  • In United Kingdom
  • List of Countries
  • For 7 days
  • Water Temperature
  • Weather Map
  • Weather Widgets
  • user-avatar
    Login

    Hourly Weather Chiquimula

    Today, 25 May, Monday

    Time Temperature Precipitation Wind Pressure Humidity
    00:00 +26°C° 0 mm 1 mps 706 mmHg 90%
    01:00 +25°C° 0 mm 1 mps 705 mmHg 91%
    02:00 +25°C° 0 mm 1 mps 705 mmHg 93%
    03:00 +25°C° 0 mm 1 mps 704 mmHg 94%
    04:00 +25°C° 0 mm 1 mps 705 mmHg 94%
    05:00 +25°C° 0 mm 1 mps 705 mmHg 93%
    06:00 +25°C° 0 mm 1 mps 705 mmHg 93%
    07:00 +27°C° 0 mm 1 mps 706 mmHg 85%
    08:00 +29°C° 0 mm 1 mps 706 mmHg 77%
    09:00 +30°C° 0 mm 1 mps 707 mmHg 69%
    10:00 +32°C° 0 mm 2 mps 707 mmHg 63%
    11:00 +34°C° 0 mm 2 mps 707 mmHg 57%
    12:00 +36°C° 0 mm 2 mps 706 mmHg 50%
    13:00 +36°C° 0.1 mm 2 mps 706 mmHg 50%
    14:00 +36°C° 0.1 mm 2 mps 705 mmHg 50%
    15:00 +36°C° 0.1 mm 2 mps 705 mmHg 49%
    16:00 +35°C° 0 mm 2 mps 705 mmHg 56%
    17:00 +32°C° 0 mm 1 mps 705 mmHg 62%
    18:00 +31°C° 0 mm 1 mps 705 mmHg 69%
    19:00 +29°C° 0.7 mm 1 mps 705 mmHg 75%
    20:00 +28°C° 0.7 mm 1 mps 706 mmHg 81%
    21:00 +27°C° 0.7 mm 1 mps 706 mmHg 87%
    22:00 +26°C° 0.4 mm 1 mps 706 mmHg 89%
    23:00 +26°C° 0.4 mm 1 mps 706 mmHg 90%

    Tomorrow, 26 May, Tuesday

    Time Temperature Precipitation Wind Pressure Humidity
    00:00 +26°C° 0.4 mm 1 mps 706 mmHg 92%
    01:00 +25°C° 0.1 mm 1 mps 706 mmHg 92%
    02:00 +25°C° 0.1 mm 1 mps 705 mmHg 93%
    03:00 +25°C° 0.1 mm 1 mps 705 mmHg 93%
    04:00 +25°C° 0 mm 1 mps 705 mmHg 92%
    05:00 +25°C° 0 mm 1 mps 705 mmHg 92%
    06:00 +25°C° 0 mm 1 mps 706 mmHg 91%
    07:00 +27°C° 0 mm 1 mps 706 mmHg 83%
    08:00 +29°C° 0 mm 1 mps 707 mmHg 75%
    09:00 +31°C° 0 mm 1 mps 707 mmHg 67%
    10:00 +32°C° 0.1 mm 1 mps 707 mmHg 62%
    11:00 +34°C° 0.1 mm 1 mps 707 mmHg 56%
    12:00 +35°C° 0.1 mm 1 mps 707 mmHg 50%
    13:00 +36°C° 0.5 mm 2 mps 706 mmHg 50%
    14:00 +36°C° 0.5 mm 2 mps 705 mmHg 50%
    15:00 +35°C° 0.5 mm 2 mps 705 mmHg 50%
    16:00 +34°C° 0.6 mm 2 mps 705 mmHg 58%
    17:00 +31°C° 0.6 mm 2 mps 705 mmHg 66%
    18:00 +29°C° 0.6 mm 2 mps 705 mmHg 73%
    19:00 +28°C° 0.5 mm 1 mps 706 mmHg 78%
    20:00 +27°C° 0.5 mm 1 mps 706 mmHg 82%
    21:00 +26°C° 0.5 mm 1 mps 706 mmHg 86%
    22:00 +24°C° 0.1 mm 0 mps 707 mmHg 86%
    23:00 +24°C° 0.1 mm 0 mps 707 mmHg 86%

    Day after tomorrow, 27 May, Wednesday

    Time Temperature Precipitation Wind Pressure Humidity
    00:00 +24°C° 0.1 mm 0 mps 707 mmHg 86%
    01:00 +24°C° 0 mm 0 mps 707 mmHg 86%
    02:00 +24°C° 0 mm 0 mps 706 mmHg 86%
    03:00 +26°C° 0 mm 1 mps 706 mmHg 86%
    04:00 +23°C° 0 mm 0 mps 706 mmHg 87%
    05:00 +23°C° 0 mm 0 mps 707 mmHg 88%
    06:00 +23°C° 0 mm 0 mps 707 mmHg 89%
    07:00 +25°C° 0 mm 0 mps 707 mmHg 82%
    08:00 +29°C° 0 mm 1 mps 708 mmHg 74%
    09:00 +30°C° 0 mm 1 mps 709 mmHg 67%
    10:00 +32°C° 0.1 mm 1 mps 708 mmHg 61%
    11:00 +34°C° 0.1 mm 1 mps 708 mmHg 55%
    12:00 +35°C° 0.1 mm 1 mps 708 mmHg 50%
    13:00 +35°C° 0.1 mm 1 mps 707 mmHg 49%
    14:00 +35°C° 0.1 mm 1 mps 707 mmHg 49%
    15:00 +35°C° 0.1 mm 1 mps 706 mmHg 49%
    16:00 +33°C° 0.8 mm 1 mps 706 mmHg 59%
    17:00 +31°C° 0.8 mm 1 mps 706 mmHg 69%
    18:00 +29°C° 0.8 mm 1 mps 706 mmHg 79%
    19:00 +28°C° 0.4 mm 1 mps 706 mmHg 82%
    20:00 +27°C° 0.4 mm 1 mps 707 mmHg 86%
    21:00 +24°C° 0.4 mm 0 mps 707 mmHg 89%
    22:00 +24°C° 0.6 mm 0 mps 707 mmHg 91%
    23:00 +24°C° 0.6 mm 0 mps 707 mmHg 92%

    28 May, Thursday

    Time Temperature Precipitation Wind Pressure Humidity
    00:00 +24°C° 0.6 mm 0 mps 707 mmHg 94%
    01:00 +23°C° 3.2 mm 0 mps 707 mmHg 94%
    02:00 +25°C° 3.2 mm 1 mps 706 mmHg 94%
    03:00 +25°C° 3.2 mm 1 mps 706 mmHg 94%
    04:00 +25°C° 0.7 mm 1 mps 707 mmHg 94%
    05:00 +23°C° 0.7 mm 0 mps 707 mmHg 95%
    06:00 +22°C° 0.7 mm 0 mps 707 mmHg 95%
    07:00 +26°C° 0.1 mm 1 mps 708 mmHg 89%
    08:00 +27°C° 0.1 mm 1 mps 708 mmHg 83%
    09:00 +28°C° 0.1 mm 1 mps 708 mmHg 77%
    10:00 +29°C° 0.4 mm 1 mps 708 mmHg 71%
    11:00 +30°C° 0.4 mm 2 mps 708 mmHg 66%
    12:00 +32°C° 0.4 mm 2 mps 708 mmHg 60%
    13:00 +32°C° 0.2 mm 2 mps 707 mmHg 59%
    14:00 +32°C° 0.2 mm 1 mps 707 mmHg 58%
    15:00 +32°C° 0.2 mm 1 mps 706 mmHg 57%
    16:00 +31°C° 0.1 mm 1 mps 706 mmHg 64%
    17:00 +30°C° 0.1 mm 1 mps 706 mmHg 71%
    18:00 +28°C° 0.1 mm 1 mps 706 mmHg 78%
    19:00 +27°C° 1.3 mm 1 mps 706 mmHg 82%
    20:00 +26°C° 1.3 mm 1 mps 707 mmHg 86%
    21:00 +26°C° 1.3 mm 1 mps 707 mmHg 90%
    22:00 +23°C° 0.8 mm 0 mps 707 mmHg 91%
    23:00 +23°C° 0.8 mm 0 mps 707 mmHg 92%

    29 May, Friday

    Time Temperature Precipitation Wind Pressure Humidity
    00:00 +23°C° 0.8 mm 0 mps 707 mmHg 93%
    01:00 +24°C° 1.6 mm 1 mps 707 mmHg 93%
    02:00 +24°C° 1.6 mm 1 mps 707 mmHg 93%
    03:00 +24°C° 1.6 mm 1 mps 706 mmHg 93%
    04:00 +24°C° 0 mm 1 mps 706 mmHg 93%
    05:00 +22°C° 0 mm 0 mps 707 mmHg 93%
    06:00 +22°C° 0 mm 0 mps 707 mmHg 93%
    07:00 +23°C° 0.1 mm 0 mps 707 mmHg 87%
    08:00 +26°C° 0.1 mm 1 mps 707 mmHg 82%
    09:00 +28°C° 0.1 mm 1 mps 707 mmHg 76%
    10:00 +29°C° 0.4 mm 1 mps 707 mmHg 73%
    11:00 +29°C° 0.4 mm 1 mps 707 mmHg 70%
    12:00 +30°C° 0.4 mm 1 mps 707 mmHg 67%
    13:00 +29°C° 0.4 mm 1 mps 706 mmHg 70%
    14:00 +29°C° 0.4 mm 1 mps 706 mmHg 73%
    15:00 +28°C° 0.4 mm 1 mps 705 mmHg 76%
    16:00 +28°C° 0.1 mm 1 mps 705 mmHg 79%
    17:00 +27°C° 0.1 mm 1 mps 706 mmHg 82%
    18:00 +26°C° 0.1 mm 1 mps 706 mmHg 85%
    19:00 +26°C° 0.2 mm 1 mps 706 mmHg 87%
    20:00 +25°C° 0.2 mm 1 mps 706 mmHg 89%
    21:00 +23°C° 0.2 mm 0 mps 706 mmHg 90%
    22:00 +23°C° 0.1 mm 0 mps 706 mmHg 91%
    23:00 +22°C° 0.1 mm 0 mps 706 mmHg 91%

    30 May, Saturday

    Time Temperature Precipitation Wind Pressure Humidity
    00:00 +22°C° 0.1 mm 0 mps 706 mmHg 91%
    01:00 +22°C° 0.2 mm 0 mps 706 mmHg 91%
    02:00 +22°C° 0.2 mm 0 mps 705 mmHg 92%
    03:00 +22°C° 0.2 mm 0 mps 705 mmHg 92%
    04:00 +24°C° 0.3 mm 1 mps 705 mmHg 92%
    05:00 +24°C° 0.3 mm 1 mps 705 mmHg 92%
    06:00 +24°C° 0.3 mm 1 mps 705 mmHg 92%
    07:00 +24°C° 0.2 mm 1 mps 706 mmHg 91%
    08:00 +24°C° 0.2 mm 1 mps 706 mmHg 91%
    09:00 +24°C° 0.2 mm 1 mps 706 mmHg 91%
    10:00 +24°C° 0.4 mm 1 mps 706 mmHg 91%
    11:00 +24°C° 0.4 mm 1 mps 706 mmHg 91%
    12:00 +24°C° 0.4 mm 1 mps 706 mmHg 91%
    13:00 +24°C° 1.1 mm 1 mps 706 mmHg 92%
    14:00 +24°C° 1.1 mm 1 mps 705 mmHg 93%
    15:00 +23°C° 1.1 mm 1 mps 705 mmHg 93%
    16:00 +23°C° 0.6 mm 1 mps 705 mmHg 94%
    17:00 +23°C° 0.6 mm 1 mps 705 mmHg 95%
    18:00 +21°C° 0.6 mm 0 mps 705 mmHg 96%
    19:00 +23°C° 2.1 mm 1 mps 705 mmHg 97%
    20:00 +22°C° 2.1 mm 1 mps 705 mmHg 97%
    21:00 +22°C° 2.1 mm 1 mps 706 mmHg 98%
    22:00 +22°C° 0.7 mm 1 mps 705 mmHg 98%
    23:00 +22°C° 0.7 mm 1 mps 705 mmHg 98%
    Show more